Saint Bonnet de Bellac- Haute Vienne - France
Donnes mto: lundi, 18/06/2012
Date Horaire Temp. E. Hum. E. P.atmo. Pluie Vent Direction Direction Ensoleilleme Solaire P. de rose Temp au vent Rafales
18/06/2012 00:00 17,9 C 82 % 1010,5 hPa 0,0 mm 0,0 km/h (0 Bft) E 90 0 min 0 W/m 14,8 C 17,9 C 0,0 km/h (0 Bft)
18/06/2012 00:10 17,9 C 83 % 1010,2 hPa 0,0 mm 5,0 km/h (1 Bft) E-SE 112 0 min 0 W/m 15,0 C 17,9 C 7,6 km/h (2 Bft)
18/06/2012 00:20 18,1 C 83 % 1010,0 hPa 0,0 mm 1,1 km/h (1 Bft) SE 135 0 min 0 W/m 15,2 C 18,1 C 4,3 km/h (1 Bft)
18/06/2012 00:30 18,1 C 83 % 1009,9 hPa 0,0 mm 5,4 km/h (2 Bft) E-SE 112 0 min 0 W/m 15,2 C 18,1 C 5,4 km/h (2 Bft)
18/06/2012 00:40 18,1 C 84 % 1009,7 hPa 0,0 mm 0,0 km/h (0 Bft) SE 135 0 min 0 W/m 15,4 C 18,1 C 0,0 km/h (0 Bft)
18/06/2012 00:50 18,1 C 84 % 1009,5 hPa 0,0 mm 2,9 km/h (1 Bft) E-SE 112 0 min 0 W/m 15,4 C 18,1 C 6,1 km/h (2 Bft)
18/06/2012 01:00 18,1 C 84 % 1009,5 hPa 0,0 mm 2,2 km/h (1 Bft) SE 135 0 min 0 W/m 15,4 C 18,1 C 4,0 km/h (1 Bft)
18/06/2012 01:10 18,1 C 84 % 1009,3 hPa 0,0 mm 1,1 km/h (1 Bft) E-SE 112 0 min 0 W/m 15,4 C 18,1 C 4,0 km/h (1 Bft)
18/06/2012 01:20 17,9 C 84 % 1009,3 hPa 0,0 mm 1,8 km/h (1 Bft) SE 135 0 min 0 W/m 15,2 C 17,9 C 2,9 km/h (1 Bft)
18/06/2012 01:30 17,9 C 85 % 1009,2 hPa 0,0 mm 0,0 km/h (0 Bft) SE 135 0 min 0 W/m 15,3 C 17,9 C 0,0 km/h (0 Bft)
18/06/2012 01:40 18,0 C 85 % 1009,1 hPa 0,0 mm 0,0 km/h (0 Bft) SE 135 0 min 0 W/m 15,4 C 18,0 C 0,0 km/h (0 Bft)
18/06/2012 01:50 18,0 C 86 % 1009,1 hPa 0,0 mm 0,0 km/h (0 Bft) S-SE 157 0 min 0 W/m 15,6 C 18,0 C 0,0 km/h (0 Bft)
18/06/2012 02:00 18,4 C 86 % 1009,2 hPa 0,0 mm 5,4 km/h (2 Bft) S-SE 157 0 min 0 W/m 16,0 C 18,4 C 10,1 km/h (2 Bft)
18/06/2012 02:10 19,1 C 86 % 1009,5 hPa 0,0 mm 2,5 km/h (1 Bft) S-SO 202 0 min 0 W/m 16,7 C 19,1 C 4,3 km/h (1 Bft)
18/06/2012 02:20 19,8 C 83 % 1009,5 hPa 0,0 mm 9,0 km/h (2 Bft) S-SO 202 0 min 0 W/m 16,8 C 19,8 C 16,6 km/h (3 Bft)
18/06/2012 02:30 20,8 C 79 % 1009,5 hPa 0,0 mm 9,0 km/h (2 Bft) N 360 0 min 0 W/m 17,0 C 20,8 C 9,0 km/h (2 Bft)
18/06/2012 02:40 21,1 C 78 % 1010,9 hPa 0,0 mm 9,4 km/h (2 Bft) O-SO 247 0 min 0 W/m 17,1 C 21,1 C 11,5 km/h (2 Bft)
18/06/2012 02:50 20,5 C 80 % 1011,5 hPa 0,0 mm 5,8 km/h (2 Bft) S-SO 202 0 min 0 W/m 16,9 C 20,5 C 11,5 km/h (2 Bft)
18/06/2012 03:04 20,0 C 80 % 1011,7 hPa 0,0 mm 4,3 km/h (1 Bft) S-SO 202 0 min 0 W/m 16,4 C 20,0 C 10,1 km/h (2 Bft)
18/06/2012 03:10 19,6 C 79 % 1012,0 hPa 0,0 mm 3,2 km/h (1 Bft) O-SO 247 0 min 0 W/m 15,9 C 19,6 C 3,2 km/h (1 Bft)
18/06/2012 03:20 19,1 C 79 % 1012,1 hPa 0,0 mm 5,4 km/h (2 Bft) O 270 0 min 0 W/m 15,4 C 19,1 C 10,4 km/h (2 Bft)
18/06/2012 03:30 18,6 C 80 % 1012,5 hPa 0,0 mm 2,2 km/h (1 Bft) NO 315 0 min 0 W/m 15,1 C 18,6 C 2,2 km/h (1 Bft)
18/06/2012 03:40 18,3 C 80 % 1013,0 hPa 0,0 mm 7,9 km/h (2 Bft) S-SO 202 0 min 0 W/m 14,8 C 18,3 C 17,3 km/h (3 Bft)
18/06/2012 03:50 18,0 C 81 % 1013,3 hPa 0,0 mm 1,8 km/h (1 Bft) NO 315 0 min 0 W/m 14,7 C 18,0 C 3,2 km/h (1 Bft)
18/06/2012 04:00 17,8 C 81 % 1013,2 hPa 0,0 mm 1,8 km/h (1 Bft) NO 315 0 min 0 W/m 14,5 C 17,8 C 4,3 km/h (1 Bft)
18/06/2012 04:10 17,4 C 81 % 1013,3 hPa 0,0 mm 0,0 km/h (0 Bft) NO 315 0 min 0 W/m 14,1 C 17,4 C 0,0 km/h (0 Bft)
18/06/2012 04:20 17,3 C 82 % 1013,2 hPa 0,0 mm 2,2 km/h (1 Bft) SE 135 0 min 0 W/m 14,2 C 17,3 C 4,3 km/h (1 Bft)
18/06/2012 04:30 17,1 C 82 % 1013,1 hPa 0,0 mm 0,0 km/h (0 Bft) SE 135 0 min 0 W/m 14,0 C 17,1 C 0,0 km/h (0 Bft)
18/06/2012 04:40 16,9 C 82 % 1013,1 hPa 0,0 mm 0,0 km/h (0 Bft) SE 135 0 min 0 W/m 13,8 C 16,9 C 0,0 km/h (0 Bft)
18/06/2012 04:50 16,9 C 83 % 1013,2 hPa 0,0 mm 0,0 km/h (0 Bft) SE 135 0 min 0 W/m 14,0 C 16,9 C 0,0 km/h (0 Bft)
18/06/2012 05:00 16,8 C 83 % 1013,0 hPa 0,0 mm 0,0 km/h (0 Bft) SE 135 0 min 0 W/m 13,9 C 16,8 C 0,0 km/h (0 Bft)
18/06/2012 05:10 16,8 C 84 % 1013,4 hPa 0,0 mm 0,0 km/h (0 Bft) SE 135 0 min 0 W/m 14,1 C 16,8 C 0,0 km/h (0 Bft)
18/06/2012 05:20 16,7 C 84 % 1013,6 hPa 0,0 mm 0,0 km/h (0 Bft) SE 135 0 min 0 W/m 14,0 C 16,7 C 0,0 km/h (0 Bft)
18/06/2012 05:30 16,5 C 85 % 1013,7 hPa 0,0 mm 0,0 km/h (0 Bft) O-SO 247 0 min 0 W/m 14,0 C 16,5 C 0,0 km/h (0 Bft)
18/06/2012 05:40 16,3 C 85 % 1013,8 hPa 0,0 mm 0,0 km/h (0 Bft) O-SO 247 0 min 0 W/m 13,8 C 16,3 C 0,0 km/h (0 Bft)
18/06/2012 05:50 16,2 C 85 % 1013,9 hPa 0,0 mm 0,0 km/h (0 Bft) O 270 0 min 0 W/m 13,7 C 16,2 C 0,0 km/h (0 Bft)
18/06/2012 06:00 16,1 C 86 % 1014,0 hPa 0,0 mm 0,7 km/h (0 Bft) O 270 0 min 0 W/m 13,8 C 16,1 C 0,7 km/h (0 Bft)
18/06/2012 06:10 16,0 C 86 % 1014,2 hPa 0,0 mm 0,0 km/h (0 Bft) O-SO 247 0 min 0 W/m 13,7 C 16,0 C 0,0 km/h (0 Bft)
18/06/2012 06:20 16,0 C 86 % 1014,4 hPa 0,0 mm 2,5 km/h (1 Bft) O 270 0 min 0 W/m 13,7 C 16,0 C 8,3 km/h (2 Bft)
18/06/2012 06:30 16,1 C 86 % 1014,7 hPa 0,0 mm 2,5 km/h (1 Bft) S-SO 202 0 min 0 W/m 13,8 C 16,1 C 4,3 km/h (1 Bft)
18/06/2012 06:40 16,1 C 86 % 1014,9 hPa 0,0 mm 0,0 km/h (0 Bft) O-SO 247 0 min 0 W/m 13,8 C 16,1 C 0,0 km/h (0 Bft)
18/06/2012 06:50 16,2 C 86 % 1015,1 hPa 0,0 mm 0,0 km/h (0 Bft) O-SO 247 0 min 0 W/m 13,9 C 16,2 C 0,0 km/h (0 Bft)
18/06/2012 07:00 16,2 C 86 % 1015,3 hPa 0,0 mm 3,2 km/h (1 Bft) S-SO 202 0 min 0 W/m 13,9 C 16,2 C 7,9 km/h (2 Bft)
18/06/2012 07:10 16,1 C 85 % 1015,7 hPa 0,0 mm 4,3 km/h (1 Bft) O-SO 247 0 min 0 W/m 13,6 C 16,1 C 9,0 km/h (2 Bft)
18/06/2012 07:20 15,9 C 84 % 1016,0 hPa 0,0 mm 4,0 km/h (1 Bft) S-SO 202 0 min 0 W/m 13,2 C 15,9 C 8,3 km/h (2 Bft)
18/06/2012 07:30 15,7 C 84 % 1016,2 hPa 0,0 mm 5,8 km/h (2 Bft) O-SO 247 0 min 0 W/m 13,0 C 15,7 C 5,8 km/h (2 Bft)
18/06/2012 07:40 15,6 C 85 % 1016,4 hPa 0,0 mm 5,4 km/h (2 Bft) O-SO 247 0 min 0 W/m 13,1 C 15,6 C 5,4 km/h (2 Bft)
18/06/2012 07:50 15,4 C 85 % 1016,5 hPa 0,0 mm 1,1 km/h (1 Bft) SO 225 0 min 0 W/m 12,9 C 15,4 C 4,3 km/h (1 Bft)
18/06/2012 08:00 15,3 C 85 % 1016,6 hPa 0,0 mm 4,7 km/h (1 Bft) O 270 0 min 0 W/m 12,8 C 15,3 C 6,8 km/h (2 Bft)
18/06/2012 08:10 15,2 C 84 % 1016,8 hPa 0,0 mm 3,6 km/h (1 Bft) SO 225 0 min 0 W/m 12,5 C 15,2 C 8,6 km/h (2 Bft)
18/06/2012 08:20 15,1 C 85 % 1017,0 hPa 0,0 mm 0,4 km/h (0 Bft) O 270 0 min 0 W/m 12,6 C 15,1 C 0,4 km/h (0 Bft)
18/06/2012 08:30 15,1 C 85 % 1017,1 hPa 0,0 mm 0,4 km/h (0 Bft) SO 225 0 min 0 W/m 12,6 C 15,1 C 3,6 km/h (1 Bft)
18/06/2012 08:40 15,2 C 85 % 1017,4 hPa 0,0 mm 1,4 km/h (1 Bft) O-SO 247 0 min 0 W/m 12,7 C 15,2 C 1,4 km/h (1 Bft)
18/06/2012 08:50 15,2 C 85 % 1017,5 hPa 0,0 mm 4,3 km/h (1 Bft) SO 225 0 min 0 W/m 12,7 C 15,2 C 4,3 km/h (1 Bft)
18/06/2012 09:00 15,3 C 85 % 1017,7 hPa 0,0 mm 1,8 km/h (1 Bft) S-SO 202 0 min 0 W/m 12,8 C 15,3 C 8,6 km/h (2 Bft)
18/06/2012 09:10 15,3 C 85 % 1017,9 hPa 0,0 mm 1,8 km/h (1 Bft) S 180 0 min 0 W/m 12,8 C 15,3 C 4,3 km/h (1 Bft)
18/06/2012 09:20 15,3 C 85 % 1018,1 hPa 0,0 mm 5,0 km/h (1 Bft) SO 225 0 min 0 W/m 12,8 C 15,3 C 9,0 km/h (2 Bft)
18/06/2012 09:30 15,3 C 84 % 1018,3 hPa 0,0 mm 5,8 km/h (2 Bft) SO 225 0 min 0 W/m 12,6 C 15,3 C 13,0 km/h (3 Bft)
18/06/2012 09:40 15,4 C 84 % 1018,3 hPa 0,0 mm 2,5 km/h (1 Bft) O 270 0 min 0 W/m 12,7 C 15,4 C 7,9 km/h (2 Bft)
18/06/2012 09:50 15,6 C 84 % 1018,5 hPa 0,0 mm 0,0 km/h (0 Bft) O 270 0 min 0 W/m 12,9 C 15,6 C 2,9 km/h (1 Bft)
18/06/2012 10:00 15,8 C 83 % 1018,9 hPa 0,0 mm 4,0 km/h (1 Bft) SO 225 0 min 0 W/m 12,9 C 15,8 C 7,2 km/h (2 Bft)
18/06/2012 10:10 16,0 C 82 % 1018,9 hPa 0,0 mm 3,2 km/h (1 Bft) SO 225 0 min 0 W/m 12,9 C 16,0 C 7,9 km/h (2 Bft)
18/06/2012 10:20 16,3 C 82 % 1018,9 hPa 0,0 mm 2,2 km/h (1 Bft) N-NO 337 0 min 0 W/m 13,2 C 16,3 C 7,2 km/h (2 Bft)
18/06/2012 10:30 16,4 C 81 % 1019,0 hPa 0,0 mm 2,2 km/h (1 Bft) SO 225 0 min 0 W/m 13,1 C 16,4 C 3,6 km/h (1 Bft)
18/06/2012 10:40 16,2 C 81 % 1019,0 hPa 0,0 mm 0,4 km/h (0 Bft) O 270 0 min 0 W/m 12,9 C 16,2 C 6,1 km/h (2 Bft)
18/06/2012 10:50 16,3 C 80 % 1019,0 hPa 0,0 mm 2,5 km/h (1 Bft) SO 225 0 min 0 W/m 12,8 C 16,3 C 4,3 km/h (1 Bft)
18/06/2012 11:00 16,3 C 81 % 1019,0 hPa 0,0 mm 7,6 km/h (2 Bft) S-SO 202 0 min 0 W/m 13,0 C 16,3 C 12,6 km/h (3 Bft)
18/06/2012 11:10 16,6 C 80 % 1019,1 hPa 0,0 mm 2,9 km/h (1 Bft) S-SO 202 0 min 0 W/m 13,1 C 16,6 C 6,1 km/h (2 Bft)
18/06/2012 11:20 16,9 C 79 % 1019,3 hPa 0,0 mm 3,6 km/h (1 Bft) O-SO 247 0 min 0 W/m 13,2 C 16,9 C 8,3 km/h (2 Bft)
18/06/2012 11:30 16,9 C 78 % 1019,5 hPa 0,0 mm 6,1 km/h (2 Bft) SO 225 0 min 0 W/m 13,0 C 16,9 C 11,5 km/h (2 Bft)
18/06/2012 11:40 16,9 C 78 % 1019,7 hPa 0,0 mm 3,2 km/h (1 Bft) SO 225 0 min 0 W/m 13,0 C 16,9 C 6,1 km/h (2 Bft)
18/06/2012 11:50 16,9 C 77 % 1019,6 hPa 0,0 mm 0,0 km/h (0 Bft) O 270 0 min 0 W/m 12,8 C 16,9 C 0,0 km/h (0 Bft)
18/06/2012 12:00 16,9 C 77 % 1019,7 hPa 0,0 mm 1,8 km/h (1 Bft) SO 225 0 min 0 W/m 12,8 C 16,9 C 4,3 km/h (1 Bft)
18/06/2012 12:10 16,9 C 77 % 1019,7 hPa 0,0 mm 2,2 km/h (1 Bft) SO 225 0 min 0 W/m 12,8 C 16,9 C 4,0 km/h (1 Bft)
18/06/2012 12:20 17,1 C 78 % 1019,7 hPa 0,0 mm 2,5 km/h (1 Bft) SO 225 0 min 0 W/m 13,2 C 17,1 C 4,0 km/h (1 Bft)
18/06/2012 12:30 17,3 C 77 % 1019,8 hPa 0,0 mm 4,0 km/h (1 Bft) SO 225 0 min 0 W/m 13,2 C 17,3 C 9,0 km/h (2 Bft)
18/06/2012 12:40 17,5 C 75 % 1019,8 hPa 0,0 mm 2,2 km/h (1 Bft) SO 225 0 min 0 W/m 13,0 C 17,5 C 4,3 km/h (1 Bft)
18/06/2012 12:50 17,8 C 75 % 1019,8 hPa 0,0 mm 5,0 km/h (1 Bft) S-SO 202 0 min 0 W/m 13,3 C 17,8 C 8,3 km/h (2 Bft)
18/06/2012 13:00 18,0 C 75 % 1019,8 hPa 0,0 mm 6,5 km/h (2 Bft) O-SO 247 0 min 0 W/m 13,5 C 18,0 C 13,7 km/h (3 Bft)
18/06/2012 13:10 18,3 C 74 % 1019,9 hPa 0,0 mm 2,5 km/h (1 Bft) S-SO 202 0 min 0 W/m 13,6 C 18,3 C 4,3 km/h (1 Bft)
18/06/2012 13:20 18,6 C 71 % 1019,9 hPa 0,0 mm 5,4 km/h (2 Bft) SO 225 0 min 0 W/m 13,2 C 18,6 C 9,7 km/h (2 Bft)
18/06/2012 13:30 18,9 C 72 % 1019,9 hPa 0,0 mm 1,1 km/h (1 Bft) O-SO 247 0 min 0 W/m 13,7 C 18,9 C 3,6 km/h (1 Bft)
18/06/2012 13:40 19,5 C 69 % 1019,8 hPa 0,0 mm 1,8 km/h (1 Bft) SO 225 0 min 0 W/m 13,7 C 19,5 C 4,0 km/h (1 Bft)
18/06/2012 13:50 20,0 C 71 % 1019,7 hPa 0,0 mm 1,4 km/h (1 Bft) O-SO 247 0 min 0 W/m 14,6 C 20,0 C 3,6 km/h (1 Bft)
18/06/2012 14:00 20,2 C 67 % 1019,7 hPa 0,0 mm 0,0 km/h (0 Bft) O-NO 292 0 min 0 W/m 13,9 C 20,2 C 0,0 km/h (0 Bft)
18/06/2012 14:10 20,1 C 67 % 1019,6 hPa 0,0 mm 0,0 km/h (0 Bft) SO 225 0 min 0 W/m 13,8 C 20,1 C 0,0 km/h (0 Bft)
18/06/2012 14:20 19,8 C 67 % 1019,6 hPa 0,0 mm 0,7 km/h (0 Bft) O 270 0 min 0 W/m 13,5 C 19,8 C 4,0 km/h (1 Bft)
18/06/2012 14:30 20,3 C 67 % 1019,6 hPa 0,0 mm 5,0 km/h (1 Bft) O-SO 247 0 min 0 W/m 14,0 C 20,3 C 9,7 km/h (2 Bft)
18/06/2012 14:40 20,6 C 66 % 1019,6 hPa 0,0 mm 0,7 km/h (0 Bft) N-NO 337 0 min 0 W/m 14,0 C 20,6 C 4,0 km/h (1 Bft)
18/06/2012 14:50 20,9 C 64 % 1019,6 hPa 0,0 mm 0,0 km/h (0 Bft) SO 225 0 min 0 W/m 13,8 C 20,9 C 2,9 km/h (1 Bft)
18/06/2012 15:00 21,1 C 65 % 1019,7 hPa 0,0 mm 2,5 km/h (1 Bft) O-NO 292 0 min 0 W/m 14,3 C 21,1 C 7,2 km/h (2 Bft)
18/06/2012 15:10 21,2 C 63 % 1019,6 hPa 0,0 mm 1,4 km/h (1 Bft) O 270 0 min 0 W/m 13,9 C 21,2 C 4,0 km/h (1 Bft)
18/06/2012 15:20 21,1 C 63 % 1019,6 hPa 0,0 mm 2,5 km/h (1 Bft) N-NO 337 0 min 0 W/m 13,8 C 21,1 C 6,1 km/h (2 Bft)
18/06/2012 15:30 20,9 C 63 % 1019,5 hPa 0,0 mm 1,4 km/h (1 Bft) SO 225 0 min 0 W/m 13,6 C 20,9 C 1,4 km/h (1 Bft)
18/06/2012 15:40 21,1 C 60 % 1019,6 hPa 0,0 mm 0,0 km/h (0 Bft) SO 225 0 min 0 W/m 13,0 C 21,1 C 3,2 km/h (1 Bft)
18/06/2012 15:50 21,4 C 60 % 1019,6 hPa 0,0 mm 0,0 km/h (0 Bft) O-SO 247 0 min 0 W/m 13,3 C 21,4 C 0,0 km/h (0 Bft)
18/06/2012 16:00 21,3 C 61 % 1019,6 hPa 0,0 mm 0,0 km/h (0 Bft) SO 225 0 min 0 W/m 13,5 C 21,3 C 0,0 km/h (0 Bft)
18/06/2012 16:10 21,2 C 59 % 1019,5 hPa 0,0 mm 1,4 km/h (1 Bft) SO 225 0 min 0 W/m 12,9 C 21,2 C 4,3 km/h (1 Bft)
18/06/2012 16:20 20,9 C 60 % 1019,4 hPa 0,0 mm 3,2 km/h (1 Bft) S-SE 157 0 min 0 W/m 12,8 C 20,9 C 3,2 km/h (1 Bft)
18/06/2012 16:30 20,7 C 60 % 1019,2 hPa 0,0 mm 0,0 km/h (0 Bft) NO 315 0 min 0 W/m 12,7 C 20,7 C 0,0 km/h (0 Bft)
18/06/2012 16:40 21,0 C 60 % 1019,2 hPa 0,0 mm 1,1 km/h (1 Bft) O-NO 292 0 min 0 W/m 12,9 C 21,0 C 1,1 km/h (1 Bft)
18/06/2012 16:50 21,2 C 59 % 1019,2 hPa 0,0 mm 0,0 km/h (0 Bft) O 270 0 min 0 W/m 12,9 C 21,2 C 0,0 km/h (0 Bft)
18/06/2012 17:00 21,2 C 59 % 1019,1 hPa 0,0 mm 0,0 km/h (0 Bft) O 270 0 min 0 W/m 12,9 C 21,2 C 0,0 km/h (0 Bft)
18/06/2012 17:10 21,1 C 59 % 1019,1 hPa 0,0 mm 0,0 km/h (0 Bft) O 270 0 min 0 W/m 12,8 C 21,1 C 3,2 km/h (1 Bft)
18/06/2012 17:20 21,3 C 61 % 1019,0 hPa 0,0 mm 0,0 km/h (0 Bft) N-NO 337 0 min 0 W/m 13,5 C 21,3 C 0,0 km/h (0 Bft)
18/06/2012 17:30 21,9 C 59 % 1018,9 hPa 0,0 mm 1,4 km/h (1 Bft) O 270 0 min 0 W/m 13,5 C 21,9 C 4,0 km/h (1 Bft)
18/06/2012 17:40 22,2 C 58 % 1018,8 hPa 0,0 mm 1,8 km/h (1 Bft) O-NO 292 0 min 0 W/m 13,5 C 22,2 C 3,6 km/h (1 Bft)
18/06/2012 17:50 22,3 C 56 % 1018,8 hPa 0,0 mm 1,1 km/h (1 Bft) SO 225 0 min 0 W/m 13,1 C 22,3 C 4,3 km/h (1 Bft)
18/06/2012 18:00 21,9 C 57 % 1018,8 hPa 0,0 mm 1,1 km/h (1 Bft) O-SO 247 0 min 0 W/m 13,0 C 21,9 C 1,1 km/h (1 Bft)
18/06/2012 18:10 22,3 C 58 % 1018,7 hPa 0,0 mm 2,2 km/h (1 Bft) NO 315 0 min 0 W/m 13,6 C 22,3 C 6,8 km/h (2 Bft)
18/06/2012 18:20 22,8 C 57 % 1018,6 hPa 0,0 mm 1,1 km/h (1 Bft) NO 315 0 min 0 W/m 13,8 C 22,8 C 4,0 km/h (1 Bft)
18/06/2012 18:30 23,1 C 56 % 1018,5 hPa 0,0 mm 1,8 km/h (1 Bft) N-NE 22 0 min 0 W/m 13,8 C 23,1 C 3,6 km/h (1 Bft)
18/06/2012 18:40 23,1 C 56 % 1018,5 hPa 0,0 mm 0,7 km/h (0 Bft) N-NO 337 0 min 0 W/m 13,8 C 23,1 C 4,0 km/h (1 Bft)
18/06/2012 18:50 23,3 C 55 % 1018,5 hPa 0,0 mm 1,8 km/h (1 Bft) N-NO 337 0 min 0 W/m 13,7 C 23,3 C 6,5 km/h (2 Bft)
18/06/2012 19:00 23,5 C 54 % 1018,2 hPa 0,0 mm 0,0 km/h (0 Bft) N-NO 337 0 min 0 W/m 13,6 C 23,5 C 3,2 km/h (1 Bft)
18/06/2012 19:10 23,5 C 54 % 1018,2 hPa 0,0 mm 1,4 km/h (1 Bft) NO 315 0 min 0 W/m 13,6 C 23,5 C 1,4 km/h (1 Bft)
18/06/2012 19:20 23,1 C 55 % 1018,3 hPa 0,0 mm 1,4 km/h (1 Bft) N-NO 337 0 min 0 W/m 13,6 C 23,1 C 3,2 km/h (1 Bft)
18/06/2012 19:30 22,6 C 55 % 1018,3 hPa 0,0 mm 0,0 km/h (0 Bft) NO 315 0 min 0 W/m 13,1 C 22,6 C 0,0 km/h (0 Bft)
18/06/2012 19:40 22,4 C 56 % 1018,3 hPa 0,0 mm 0,0 km/h (0 Bft) N-NO 337 0 min 0 W/m 13,2 C 22,4 C 0,0 km/h (0 Bft)
18/06/2012 19:50 22,4 C 56 % 1018,2 hPa 0,0 mm 1,1 km/h (1 Bft) E-NE 67 0 min 0 W/m 13,2 C 22,4 C 4,3 km/h (1 Bft)
18/06/2012 20:00 22,4 C 55 % 1018,1 hPa 0,0 mm 4,3 km/h (1 Bft) NE 45 0 min 0 W/m 12,9 C 22,4 C 4,3 km/h (1 Bft)
18/06/2012 20:10 22,1 C 55 % 1018,2 hPa 0,0 mm 0,4 km/h (0 Bft) N 360 0 min 0 W/m 12,6 C 22,1 C 3,2 km/h (1 Bft)
18/06/2012 20:20 21,6 C 57 % 1018,2 hPa 0,0 mm 0,0 km/h (0 Bft) N 360 0 min 0 W/m 12,7 C 21,6 C 0,0 km/h (0 Bft)
18/06/2012 20:30 21,1 C 58 % 1018,2 hPa 0,0 mm 0,0 km/h (0 Bft) N 360 0 min 0 W/m 12,5 C 21,1 C 0,0 km/h (0 Bft)
18/06/2012 20:40 20,5 C 59 % 1018,2 hPa 0,0 mm 0,4 km/h (0 Bft) NO 315 0 min 0 W/m 12,2 C 20,5 C 0,4 km/h (0 Bft)
18/06/2012 20:50 20,1 C 59 % 1018,1 hPa 0,0 mm 0,0 km/h (0 Bft) N 360 0 min 0 W/m 11,8 C 20,1 C 0,0 km/h (0 Bft)
18/06/2012 21:00 19,7 C 60 % 1018,0 hPa 0,0 mm 0,0 km/h (0 Bft) N 360 0 min 0 W/m 11,7 C 19,7 C 0,0 km/h (0 Bft)
18/06/2012 21:10 19,3 C 62 % 1018,1 hPa 0,0 mm 0,0 km/h (0 Bft) N 360 0 min 0 W/m 11,8 C 19,3 C 0,0 km/h (0 Bft)
18/06/2012 21:20 18,9 C 63 % 1018,1 hPa 0,0 mm 0,0 km/h (0 Bft) N 360 0 min 0 W/m 11,7 C 18,9 C 0,0 km/h (0 Bft)
18/06/2012 21:30 18,6 C 64 % 1018,1 hPa 0,0 mm 0,0 km/h (0 Bft) N 360 0 min 0 W/m 11,7 C 18,6 C 0,0 km/h (0 Bft)
18/06/2012 21:40 18,4 C 65 % 1018,2 hPa 0,0 mm 0,0 km/h (0 Bft) N 360 0 min 0 W/m 11,7 C 18,4 C 0,0 km/h (0 Bft)
18/06/2012 21:50 18,1 C 66 % 1018,3 hPa 0,0 mm 0,0 km/h (0 Bft) N 360 0 min 0 W/m 11,6 C 18,1 C 0,0 km/h (0 Bft)
18/06/2012 22:00 17,8 C 67 % 1018,3 hPa 0,0 mm 0,0 km/h (0 Bft) N 360 0 min 0 W/m 11,6 C 17,8 C 0,0 km/h (0 Bft)
18/06/2012 22:10 17,4 C 68 % 1018,4 hPa 0,0 mm 0,0 km/h (0 Bft) N 360 0 min 0 W/m 11,4 C 17,4 C 0,0 km/h (0 Bft)
18/06/2012 22:20 16,9 C 69 % 1018,4 hPa 0,0 mm 0,0 km/h (0 Bft) N-NE 22 0 min 0 W/m 11,2 C 16,9 C 0,0 km/h (0 Bft)
18/06/2012 22:30 16,6 C 69 % 1018,4 hPa 0,0 mm 0,0 km/h (0 Bft) N-NE 22 0 min 0 W/m 10,9 C 16,6 C 0,0 km/h (0 Bft)
18/06/2012 22:40 16,3 C 70 % 1018,3 hPa 0,0 mm 0,0 km/h (0 Bft) N 360 0 min 0 W/m 10,8 C 16,3 C 3,2 km/h (1 Bft)
18/06/2012 22:50 15,9 C 71 % 1018,3 hPa 0,0 mm 0,0 km/h (0 Bft) N 360 0 min 0 W/m 10,6 C 15,9 C 0,0 km/h (0 Bft)
18/06/2012 23:00 15,6 C 73 % 1018,6 hPa 0,0 mm 0,0 km/h (0 Bft) N 360 0 min 0 W/m 10,8 C 15,6 C 0,0 km/h (0 Bft)
18/06/2012 23:10 15,3 C 74 % 1018,5 hPa 0,0 mm 0,0 km/h (0 Bft) N 360 0 min 0 W/m 10,7 C 15,3 C 0,0 km/h (0 Bft)
18/06/2012 23:20 14,9 C 74 % 1018,5 hPa 0,0 mm 0,4 km/h (0 Bft) N 360 0 min 0 W/m 10,3 C 14,9 C 3,6 km/h (1 Bft)
18/06/2012 23:30 14,7 C 76 % 1018,5 hPa 0,0 mm 0,0 km/h (0 Bft) N-NE 22 0 min 0 W/m 10,5 C 14,7 C 0,0 km/h (0 Bft)
18/06/2012 23:40 14,5 C 77 % 1018,7 hPa 0,0 mm 0,0 km/h (0 Bft) N-NE 22 0 min 0 W/m 10,5 C 14,5 C 0,0 km/h (0 Bft)
18/06/2012 23:50 14,4 C 78 % 1018,5 hPa 0,0 mm 0,0 km/h (0 Bft) N-NE 22 0 min 0 W/m 10,6 C 14,4 C 0,0 km/h (0 Bft)
_ Min-Heure 23:50 19:10 01:50 - 23:50 - - - - 23:20 23:50 23:50
Minimum _ 14,4 C 54 % 1009,1 hPa - 0,0 km/h (0 Bft) - - - - 10,3 C 14,4 C 0,0 km/h (0 Bft)
_ Max-Heure 19:10 07:00 13:30 23:50 02:40 - - 23:50 23:50 02:40 19:10 03:40
Maximum _ 23,5 C 86 % 1019,9 hPa 0,0 mm 9,4 km/h
O-SO (2 Bft)
- - 0 min 0 W/m 17,1 C 23,5 C 17,3 km/h
S-SO (3 Bft)
Moyenne _ 18,4 C 74 % 1016,7 hPa #0,0 mm 1,9 km/h (1 Bft) SO - #0 min. 0 W/m 13,4 C 18,4 C 3,9 km/h (1 Bft)
Saint Bonnet de Bellac- Haute Vienne - France